www.pogodaiklimat.ru

Погода и климат >> Архив погоды >> Россия >> Якутия >> Оленек


ПОГОДА в Оленеке

АРХИВ ПОГОДЫ в Оленеке

Время (UTC), дата Ветер
(напр.,м/с)
 
Видим.   Явления Облачность Т
(С)
Тd
(С)
f
(%)
Тe
(С)
Тes
(С)
Комфортность P
(гПа)
Po
(гПа)
Тmin
(С)
Tmax
(С)
R
(мм)
R24
(мм)
S
(см)
06 17.06 СЗ 2
{10}
н/о н/о +0.7 -0.1 94 -3 -3 1011.4 984.2
09 17.06 С 4 н/о н/о +4.4 +0.9 78 0 0 1013.3 986.4
12 17.06 С 5 н/о н/о +6.6 -1.2 57 +3 +3 1015.4 988.6 +7.0
15 17.06 С 3 н/о н/о +4.8 -1.8 62 +2 +2 1017.8 990.8
18 17.06 З 1 н/о н/о +3.4 -2.9 63 +2 +2 1019.1 991.9
21 17.06 штиль 0 н/о н/о +4.7 -1.5 64 +4 +4 1019.6 992.6
00 18.06 Ю 2 н/о н/о +8.7 -1.6 48 +7 +7 1019.6 992.9 +3.2
03 18.06 З 3 н/о н/о +13.1 +1.3 45 +12 +12 1018.1 991.9
06 18.06 З 2 н/о н/о +15.2 +2.1 41 +15 +15 1016.4 990.4
09 18.06 ЮЗ 4 н/о н/о +16.1 +2.7 41 +15 +15 1014.1 988.3
12 18.06 Ю 4 н/о н/о +16.1 +2.4 40 +15 +15 1011.9 986.1 +17.2
15 18.06 Ю 3 н/о н/о +13.6 +1.9 45 +13 +13 1009.8 983.9
18 18.06 ЮЗ 4 н/о н/о +12.3 +1.9 49 +11 +11 1008.0 981.9
21 18.06 З 6-10
{10}
н/о н/о +13.3 +2.0 46 +11 +11 1006.8 980.9
00 19.06 З 3
{10}
50 км 10/4 600 м
[Sc Ac und]
+12.7 +4.3 57 +12 +12 1007.3 981.3 +11.8
03 19.06 З 5 н/о н/о +16.1 +4.3 45 +15 +15 1007.2 981.5
06 19.06 З 3 50 км 10/5 600 м
[Sc diur, vesp Ci sp]
+16.8 +4.6 44 +17 +20 1007.4 981.8
09 19.06 СЗ 2 50 км 10/5 600 м
[Sc diur, vesp Ci sp]
+16.2 +4.8 47 +16 +19 1007.4 981.8
12 19.06 Ю 2 н/о н/о +12.9 +8.1 73 +12 +12 1007.4 981.5 +17.3
15 19.06 З 2 н/о н/о +11.6 +9.5 87 +10 +10 1006.9 980.9
18 19.06 Ю 1 н/о н/о +10.4 +9.4 94 +10 +10 1006.1 980.0
21 19.06 штиль 0 н/о н/о +11.5 +9.7 89 +11 +11 1006.0 980.0
00 20.06 ЮЗ 1 50 км 9/8 600 м
[Cb cap Ci sp]
+12.5 +9.2 80 +13 +14 1005.5 979.7 +10.1 0.6
03 20.06 З 2 50 км 9/6 800 м
[Sc diur, vesp Ac und]
+15.8 +9.2 65 +16 +18 1005.0 979.4
06 20.06 Ю 2 50 км 10/5 600 м
[Sc diur, vesp As op]
+17.8 +9.2 57 +18 +19 1004.6 979.1
09 20.06 Ю 2 50 км 10/5 600 м
[Sc Ac As]
+17.3 +9.7 61 +18 +18 1005.1 979.6
12 20.06 ЮВ 2 н/о н/о +17.3 +10.1 63 +18 +18 1004.6 979.1 +18.1
15 20.06 ЮВ 3 н/о н/о +15.7 +11.1 74 +15 +15 1003.9 978.4
18 20.06 В 2 н/о н/о +14.0 +11.6 85 +13 +13 1002.6 976.9
21 20.06 ЮВ 2 н/о н/о +14.5 +12.7 89 +14 +14 1001.2 975.6
00 21.06 Ю 3 50 км 10/3 1500 м
[Sc diur, vesp Ac As Ci sp]
+18.9 +14.2 74 +20 +22 999.8 974.7 +13.4
03 21.06 ЮЗ 3 50 км 6/0
[Ci sp]
+23.8 +15.3 59 +27 +34 жарко 998.3 973.6
06 21.06 ЮЗ 4 50 км 6/3 1500 м
[Cu hum Ci sp]
+28.4 +13.3 39 +30 +34 жарко 996.8 972.5
09 21.06 З 6-11
{14}
50 км 10/5 600 м
[Cb cap Ci sp]
+28.4 +11.2 34 +29 +30 жарко 995.7 971.4
12 21.06 СВ 4
{12}
н/о н/о +24.0 +13.4 51 +26 +26 жарко 997.4 972.7 +29.5
15 21.06 ЮВ 2 н/о н/о +21.1 +13.8 63 +24 +24 комфорт 998.5 973.6
18 21.06 ЮЗ 2 н/о н/о +20.1 +12.2 60 +22 +22 комфорт 998.4 973.4
21 21.06 ЮЗ 2 н/о н/о +18.8 +13.0 69 +20 +20 998.6 973.5
00 22.06 З 1 50 км 10/0
[Ci fib]
+21.4 +13.8 62 +24 +29 комфорт 997.9 973.0 +17.9
03 22.06 СВ 1 50 км 10/5 1000 м
[Cb cap Ac und]
+22.1 +14.3 61 +25 +27 комфорт 996.2 971.4
06 22.06 С 5 50 км 10/5 1000 м
[Cb cap As op Cs]
+22.1 +14.3 61 +25 +27 комфорт 996.0 971.2
09 22.06 Ю 1 50 км 10/5 1000 м
[Cb cap As op]
+22.4 +14.6 61 +26 +27 жарко 994.4 969.7
12 22.06 С 1 50 км слабый ливневой дождь 10/4 1000 м
[Cb cap As op]
+19.1 +16.8 87 +22 +22 комфорт 993.7 968.8 +24.0 0.4
15 22.06 Ю 1 н/о н/о +17.1 +16.8 98 +18 +18 993.3 968.2
18 22.06 В 1 н/о н/о +16.0 +15.7 98 +17 +17 993.2 968.0
21 22.06 СВ 1 н/о н/о +16.4 +15.5 94 +17 +17 993.3 968.1
00 23.06 С 8-13
{13}
20 км слабый ливневой дождь 10/8 330 м
[Cb cap Ac und]
+13.8 +12.5 92 +11 +11 994.8 969.3 +13.8 13
03 23.06 С 5-10
{13}
20 км слабый дождь {ливн. осадки} 10/8 270 м
[Frnb As op]
+10.3 +9.0 92 +7 +7 999.7 973.7 +10.3
06 23.06 С 5
{11}
50 км {ливн. осадки, дождь} 10/8 300 м
[Frnb As op]
+7.0 +5.5 90 +3 +3 1005.0 978.6
09 23.06 С 6
{11}
50 км 9/5 600 м
[Sc Ac As]
+8.4 +4.1 74 +5 +5 1008.3 981.9
12 23.06 С 4 н/о н/о +7.8 +2.8 71 +5 +5 1011.3 984.8 +13.8
15 23.06 С 3 н/о н/о +7.0 +2.1 71 +4 +4 1013.2 986.5
18 23.06 СВ 1 н/о н/о +5.0 +1.4 78 +4 +4 1014.7 987.8
21 23.06 В 2 н/о н/о +6.4 +1.4 70 +4 +4 1016.0 989.3
00 24.06 СВ 1 н/о н/о +9.1 +1.2 58 +9 +9 1016.4 989.9 +4.4
03 24.06 ЮВ 1 н/о н/о +12.7 +0.2 42 +13 +13 1015.4 989.2

 

Местоположение метеостанции Оленек (Якутия, Россия): широта 68.50 долгота 112.40 высота над уровнем моря 220 м.

В архиве по умолчанию представлена погода в Оленеке за последнюю неделю. Архивные данные за месяц целиком и за предыдущие месяцы, начиная с января 2011 года, Вы можете получить, выбрав интересующий диапазон дат из раскрывающегося списка и нажав кнопку "Ввод!".

Внимание! Время в таблицах - всемирное. Для получения местного времени необходимо прибавить поправку, которая в Оленеке равна 9 ч.

Смотрите также архив погоды в соседних городах и на ближайших метеорологических станциях:

Погода в Джалинде (Якутия, Россия) (191 км)
Погода в Полярном (Якутия, Россия) (197 км)
Погода в Ярольине (Якутия, Россия) (224 км)
Погода в Сухане (Якутия, Россия) (240 км)
Погода в Шелагонцах (Якутия, Россия) (262 км)
Погода в Эйке (Якутия, Россия) (349 км)
Погода в Саскылахе (Якутия, Россия) (391 км)
Погода в Хабардино (Якутия, Россия) (434 км)
Погода в Джарджане (Якутия, Россия) (470 км)
Погода в Жиганске (Якутия, Россия) (498 км)

Пояснения к столбцам:

Ветер - указаны скорость ветра в м/с - средняя за 10 мин, порывы в срок и между сроками (в фигурных скобках) и направление, откуда дует ветер: С - северный, СВ - северо-восточный, В - восточный, ЮВ - юго-восточный, Ю - южный, ЮЗ - юго-западный, З - западный, СЗ - северо-западный.
Видимость - горизонтальная дальность видимости в метрах или километрах. При видимости от 1 до 10 км при отсутствии осадков обычно наблюдается дымка, при ухудшении видимости до 1 км и менее - туман. В сухую погоду видимость может ухудшаться дымом, пылью или мглою.
Явления - указаны атмосферные явления, наблюдавшиеся в срок или в последний час перед сроком; фигурными скобками обозначены явления, наблюдавшиеся между сроками (за 1-3 часа до срока); квадратными скобками обозначены град или гололедные отложения с указанием их диаметра в мм.
Облачность - указаны через наклонную черту общая и нижняя облачность в баллах и высота нижней границы облаков в метрах; квадратными скобками обозначены формы облаков: Ci - перистые, Cs - перисто-слоистые, Cc - перисто-кучевые, Ac - высококучевые, As - высокослоистые, Sc - слоисто-кучевые, Ns - слоисто-дождевые, Cu - кучевые, Cb - кучево-дождевые. Подробнее классификацию облаков см. в Атласе облаков (PDF).
T - Температура воздуха - температура, измеренная на высоте 2 м над землей.
Td - Температура точки росы - температура, при понижении до которой содержащийся в воздухе водяной пар достигнет насыщения.
f - Относительная влажность воздуха - влажноcть воздуха, измеренная на высоте 2 м над землей.
Te - Эффективная температура - температура, которую ощущает одетый по сезону человек в тени. Характеристика душности погоды. При расчете учитывается влияние влажности воздуха и скорости ветра на теплоощущения человека.
Tes - Эффективная температура на солнце - температура, которую ощущает человек, с поправкой на солнечный нагрев. Характеристика знойности погоды. Зависит от высоты солнца над горизонтом, облачности и скорости ветра. Ночью, в пасмурную погоду, а также при ветре 12 м/с и более поправка равна нулю.
P - Атмосферное давление - приведенное к уровню моря атмосферное давление.
Po - Атмосферное давление - измеренное на уровне метеостанции атмосферное давление.
Tmin - Минимальная температура - минимум температуры воздуха на высоте 2 м над землей.
Tmax - Максимальная температура - максимум температуры воздуха на высоте 2 м над землей.
R - Количество осадков - Количество выпавших осадков за период времени, мм. При наведении курсора мыши на число - период времени, за который выпало указанное количество осадков.
R24 - Количество осадков - Количество выпавших осадков за 24 часа, мм.
S - Снежный покров - Высота снежного покрова, см. При наведении курсора мыши на число - состояние снежного покрова и степень покрытия местности в баллах.